Location: Buckenweiler
(49.0667°N, 10.2500°E)
Time: 20:29:31
(UTC+00:00)

COSMOS 2406 - Pass Details

Date: 18 January 2026
Orbit: 843 x 861 km, 71.0° (Epoch: 15 February)

Event Time Altitude Azimuth Distance (km) Brightness Sun altitude
Exits shadow 05:57:54 - 325° (NW) 2,701 5.3 -10.9°
Reaches altitude 10° 05:58:27 10° 323° (NW) 2,498 5.2 -10.8°
Maximum altitude 06:03:58 50° 250° (WSW) 1,082 3.5 -9.9°
Drops below altitude 10° 06:09:28 10° 176° (S) 2,489 6.0 -9.1°
Sets 06:11:59 0° 171° (S) 3,423 6.8 -8.7°
